Torna al catalogo

BREEZE-M DEB

AttivoHEO
NORAD 41320·DEBRIS·🇷🇺 Russia

Lanciato May 17, 2012 da Baikonur Cosmodrome

Loading…

Prossimi Passaggi (prossime 24 ore)

TLE

AggiornatoSource: Space-Track

Epoca: Sep 14, 2026, 01:40 UTC

1 41320U 12026G   26257.06961030 -.00000125  00000-0  00000-0 0  9997
2 41320  10.1151 133.6507 4118260  52.4794 338.4393  1.76040423 68991

Traccia BREEZE-M DEB in tempo reale con AllMySat

Download on the App Store